Location: Sawmill Trailhead
(33.5800°N, 116.4497°W)
Time: 15:58:38
(UTC-08:00)

Uosat F - Visible Passes

Search period start: 05 March 2015 00:00
Search period end: 15 March 2015 01:00
Orbit: 752 x 761 km, 98.7° (Epoch: 04 March)

Date Brightness Start Highest point End Pass type
(mag) Time Alt. Az. Time Alt. Az. Time Alt. Az.
05 Mar 10.9 04:41:42 10° N 04:46:46 76° WNW 04:51:47 10° SSW visible
06 Mar 12.3 04:02:43 10° NNE 04:07:28 41° E 04:12:13 10° S visible
06 Mar 12.4 05:42:25 10° NNW 05:45:59 19° WNW 05:49:22 10° WSW visible
07 Mar 13.8 03:24:57 10° ENE 03:27:52 16° E 03:31:02 10° SE visible
07 Mar 11.3 05:02:08 10° N 05:06:57 46° WNW 05:11:44 10° SW visible
08 Mar 11.3 05:22:44 10° NNE 05:27:46 68° ESE 05:32:46 10° S visible
09 Mar 13.1 04:44:12 10° NE 04:48:20 26° E 04:52:33 10° SSE visible
09 Mar 11.9 06:22:45 10° N 06:27:08 29° WNW 06:31:23 10° SW visible
10 Mar 11.0 05:42:58 10° N 05:48:01 75° WNW 05:53:01 10° SSW visible
11 Mar 12.3 05:03:58 10° NNE 05:08:43 42° E 05:13:28 10° S visible
12 Mar 13.8 04:26:09 10° NE 04:29:07 16° E 04:32:19 10° SE visible
12 Mar 11.3 06:03:23 10° N 06:08:12 46° WNW 06:12:58 10° SW visible
13 Mar 11.3 05:23:59 10° NNE 05:29:01 69° ESE 05:34:01 10° S visible
14 Mar 13.1 04:45:26 10° NE 04:49:35 26° E 04:53:48 10° SSE visible
14 Mar 11.9 06:24:01 10° N 06:28:21 29° WNW 06:32:35 10° SW visible
